User: anonymous   Login
Location: Mount Graham
(32.7016°N, 109.8912°W)
Time: 02:24:07
(UTC-07:00)
Language:

Cosmos 1340 - Orbit

View from above orbital plane
View from above orbital plane
View from above satellite
View from above satellite

Ground track
Ground track

The orbit data is extracted from the following two-line orbital elements,

1 13067U 82013A   17344.42273337 +.00000653 +00000-0 +29379-4 0  9999
2 13067 081.1870 288.8301 0002361 319.0486 041.0567 15.19734049954304
Epoch (UTC): 10 December 2017 10:08:44
Eccentricity: 0.0002361
inclination: 81.1870°
perigee height: 505 km
apogee height: 508 km
right ascension of ascending node: 288.8301°
argument of perigee: 319.0486°
revolutions per day: 15.19734049
mean anomaly at epoch: 41.0567°
orbit number at epoch: 95430

The dashed part of the orbit path shows where the satellite is in the earth's shadow,  

DLR